User: anonymous   Login
Location: Ferma
(41.9500°N, 44.5167°E)
Time: 00:25:21
(UTC+00:00)
Language:

Cosmos 220 Rocket - Orbit

View from above orbital plane
View from above orbital plane
View from above satellite
View from above satellite

Ground track
Ground track

The orbit data is extracted from the following two-line orbital elements,

1 03230U 68040B   22020.60044870  .00000726  00000-0  76793-4 0  9992
2 03230  74.0363 122.1569 0030580 344.3241  15.6991 14.90997958864343
Epoch (UTC): 20 January 2022 14:24:38
Eccentricity: 0.0030580
inclination: 74.0363°
perigee height: 573 km
apogee height: 616 km
right ascension of ascending node: 122.1569°
argument of perigee: 344.3241°
revolutions per day: 14.90997958
mean anomaly at epoch: 15.6991°
orbit number at epoch: 86434

The dashed part of the orbit path shows where the satellite is in the earth's shadow,  

DLR